Location: Newark
(49.8969°N, 3.3422°E)
Time: 21:02:32
(UTC+00:00)

Explorer 7 - Pass Details

Date: 26 January 2020
Orbit: 485 x 679 km, 50.3° (Epoch: 26 February)

Event Time Altitude Azimuth Distance (km) Brightness Sun altitude
Rises 21:01:04 0° 196° (SSW) 2,584 - -42.8°
Reaches altitude 10° 21:04:09 10° 170° (S) 1,681 - -43.3°
Maximum altitude 21:06:06 14° 138° (SE) 1,457 - -43.6°
Drops below altitude 10° 21:08:02 10° 107° (ESE) 1,669 - -43.9°
Sets 21:11:04 0° 81° (E) 2,551 - -44.3°
